Theta_e
322 322 322 323 324 324 325 325 325 325 332 332 332 338 340 340 340 340 340 339 338 335 331 330 330 331 330 328 327 326 326 327 335 339 341 341 339 339 340 340 340 340 339 339
323 322 323 323 323 323 324 325 327 332 330 335 338 339 340 339 340 340 339 338 336 332 329 328 328 327 324 323 323 323 323 323 326 332 327 327 328 331 333 332 333 334 335 336
323 324 323 322 323 323 325 326 327 328 334 335 336 337 340 339 338 337 337 336 333 330 328 326 327 327 325 322 319 318 317 317 317 319 325 326 328 327 329 328 328 324 325 327
324 323 323 324 324 325 326 325 325 327 328 329 332 328 338 341 340 338 338 335 331 327 326 326 326 326 325 322 318 316 316 317 317 317 318 318 321 322 320 321 319 323 317 320
324 324 324 325 325 325 326 324 325 325 326 326 326 325 331 338 340 339 337 335 332 327 325 325 326 325 324 322 319 316 316 316 316 315 315 318 317 317 317 318 315 316 316 313
325 323 324 325 324 324 324 325 325 326 325 326 325 325 324 330 329 331 337 335 331 326 324 325 325 325 324 321 319 316 316 316 315 314 313 313 312 312 316 314 317 316 316 315
325 325 324 324 325 324 325 326 326 327 327 325 326 325 325 328 329 331 333 334 329 324 324 324 325 325 325 323 320 317 316 316 315 314 313 313 313 311 312 315 316 316 316 315
325 326 325 324 325 326 325 326 327 328 329 328 326 327 329 331 332 332 333 333 326 323 323 324 325 325 324 323 320 318 318 318 315 314 313 312 313 316 316 311 315 316 316 315
325 325 324 324 324 325 326 326 326 327 327 327 326 327 327 332 334 334 334 327 324 324 324 325 325 324 324 324 320 317 318 317 315 314 313 313 312 312 314 312 316 316 316 316
327 327 325 323 323 324 326 326 327 328 328 328 325 324 324 330 333 335 335 329 324 325 324 324 324 325 325 324 323 318 318 318 316 315 315 316 313 313 313 314 314 313 312 312
326 327 327 325 326 326 326 326 326 328 327 327 327 325 326 326 332 333 335 333 327 326 325 324 325 325 325 323 322 321 319 318 317 315 316 314 317 316 313 313 316 316 314 316
327 329 327 327 325 325 326 327 327 328 328 328 328 327 327 329 329 331 333 334 330 328 327 325 325 325 324 323 322 321 320 319 318 317 317 317 318 317 316 317 318 318 318 317
327 328 328 327 327 325 326 326 326 328 330 328 328 326 327 327 328 328 331 331 332 331 330 328 327 326 325 324 323 322 321 320 319 317 317 317 318 319 319 319 318 318 318 318
324 330 328 327 327 328 327 326 326 327 328 327 325 325 326 326 326 324 324 325 327 330 330 330 329 328 327 326 324 323 322 322 321 319 317 317 317 315 314 315 318 319 318 318
329 329 328 327 325 324 325 325 325 326 326 326 324 324 325 325 325 324 325 325 326 326 326 327 327 327 327 326 325 324 323 323 322 320 319 318 316 315 314 313 314 314 313 313
326 328 328 327 324 324 325 324 324 324 325 324 325 325 324 323 323 324 324 325 326 325 325 324 324 325 325 324 324 324 323 322 322 320 319 318 317 317 314 313 312 312 313 312
327 326 328 326 325 325 326 324 324 324 324 324 325 325 323 323 324 325 324 324 323 322 322 322 323 323 323 323 323 322 322 322 321 319 316 315 313 312 311 311 311 310 309 309
327 328 326 326 326 328 324 324 324 325 325 325 325 322 321 323 325 324 323 322 322 322 322 322 322 321 320 320 321 321 320 318 317 315 313 311 310 310 309 309 309 309 309 309
325 327 325 328 327 324 323 323 324 325 324 323 323 322 322 324 324 323 322 322 323 323 322 321 320 320 319 318 318 317 315 314 313 312 311 309 308 309 308 308 308 308 308 308
324 327 327 326 329 327 325 324 323 322 325 322 322 323 324 323 325 323 321 321 322 321 321 319 319 318 317 315 314 314 313 312 311 310 309 307 306 306 307 307 306 306 307 306
327 327 327 327 329 325 323 321 321 324 325 322 322 323 323 324 323 322 322 322 321 320 319 318 318 317 315 313 310 309 309 310 308 307 306 306 306 306 305 305 305 306 305 305
325 326 326 327 330 329 323 322 323 324 323 322 323 323 323 322 321 321 321 320 319 318 317 317 315 313 310 308 310 310 308 308 307 307 307 306 306 305 304 305 305 304 304 304
327 324 325 325 326 326 323 322 321 323 322 322 322 323 322 320 320 320 319 319 318 318 316 313 311 309 310 309 309 308 308 307 307 306 306 305 305 304 304 304 304 304 304 303
324 323 325 326 324 325 323 323 323 322 322 322 322 322 321 320 319 319 319 317 316 315 313 311 311 310 309 308 307 307 307 306 306 306 305 304 304 302 303 303 303 303 302 301
322 323 324 325 324 322 322 321 321 322 321 321 320 320 319 318 318 317 317 315 314 312 310 310 309 308 308 307 306 306 305 305 305 305 304 304 302 302 302 302 301 300 300 297
321 322 324 324 322 323 322 321 321 320 320 320 319 318 317 317 316 316 315 314 312 310 309 308 307 306 306 305 304 304 304 304 304 304 303 302 303 303 302 301 301 300 299 298
Wind_Speed
7 9 12 13 13 7 2 5 4 2 2 4 4 7 8 9 11 12 10 9 8 7 8 8 8 9 9 9 9 10 9 10 9 5 2 2 4 4 6 9 11 13 15 17
8 13 1 5 5 9 9 8 6 5 4 5 9 8 7 9 12 11 10 9 10 10 8 8 8 8 9 10 11 11 12 12 11 9 8 6 6 5 4 6 8 8 10 11
10 7 6 9 10 11 8 9 6 1 7 3 9 9 11 11 10 10 10 9 9 10 10 9 8 9 8 10 11 11 12 11 10 9 8 8 7 7 6 7 8 9 10 12
6 6 9 10 11 9 11 2 3 6 7 5 7 6 14 14 13 15 15 14 13 12 11 10 10 9 8 9 10 12 13 13 12 12 9 6 5 4 6 7 9 9 12 12
6 9 10 11 3 2 6 3 2 2 6 7 11 8 6 11 12 15 18 17 15 14 14 13 12 10 8 8 9 11 12 13 13 13 11 8 8 7 7 6 8 11 11 11
6 3 2 3 6 1 9 7 5 6 8 11 7 6 13 10 6 8 18 17 17 17 16 14 12 10 9 8 7 9 11 11 11 11 11 10 9 8 7 8 8 8 9 10
7 9 5 7 8 7 9 8 9 8 8 6 5 5 12 4 1 5 7 17 18 18 18 16 14 11 10 8 7 7 7 8 8 8 8 8 8 8 9 8 8 9 9 11
9 10 10 4 7 5 10 8 9 8 7 4 6 6 1 3 1 5 7 15 18 19 18 17 15 13 11 9 7 7 5 4 4 6 7 7 8 6 7 9 8 8 8 10
8 9 7 1 3 5 6 10 4 8 9 9 13 4 9 4 4 5 10 15 18 18 17 16 15 13 10 8 7 6 4 1 0 2 3 3 4 5 5 7 7 6 8 8
4 5 4 6 5 4 6 5 5 8 9 12 6 5 10 7 7 8 13 17 19 17 17 15 13 12 11 9 8 7 6 5 4 3 2 2 3 3 4 5 6 7 9 10
6 7 7 5 10 9 6 10 6 5 5 10 12 7 4 4 6 8 11 15 19 17 17 16 15 14 13 11 10 9 9 8 8 7 6 6 5 5 6 6 8 9 12 11
8 7 11 12 4 3 5 10 8 8 9 7 8 14 5 4 4 7 9 13 16 16 16 16 16 15 15 15 13 12 11 10 9 9 8 8 8 8 9 9 11 12 14 14
9 8 10 8 6 6 9 11 10 7 6 14 13 11 4 6 6 4 6 10 14 15 16 16 16 17 16 16 14 13 11 10 9 10 10 9 9 9 10 12 13 15 16 16
6 6 12 13 8 1 9 12 13 14 11 14 15 17 7 8 7 5 6 6 7 10 13 14 14 15 14 14 13 12 11 9 9 9 9 10 10 13 16 15 15 14 13 13
5 10 12 14 6 6 9 11 14 17 18 17 15 14 10 12 11 9 8 5 4 3 4 6 7 7 8 9 9 10 10 9 8 6 6 8 15 19 21 19 20 13 9 8
5 9 8 13 9 10 14 14 16 18 18 16 17 18 15 18 12 9 7 7 9 11 13 13 11 9 6 3 2 5 6 6 6 6 10 15 15 13 13 12 14 15 19 21
9 8 8 15 9 11 15 19 20 20 19 15 17 13 6 4 7 8 9 11 12 13 13 11 10 9 8 6 5 3 2 2 2 1 3 4 5 7 10 16 20 21 19 21
9 12 10 11 4 15 10 1 8 14 16 15 13 10 6 6 10 10 10 11 11 10 9 8 7 8 7 7 6 5 6 5 4 2 2 5 10 16 19 17 16 15 16 17
7 10 9 10 13 15 11 7 7 10 12 13 13 7 9 12 13 10 9 8 8 8 7 7 6 7 7 7 7 6 5 4 4 3 6 11 12 12 14 15 16 15 15 15
6 7 10 7 12 11 5 5 8 4 13 16 14 13 16 17 11 10 13 9 9 8 7 7 6 6 6 4 3 4 4 3 4 5 8 10 11 11 13 14 14 15 15 15
10 10 15 14 13 9 4 12 12 9 0 12 16 18 19 14 4 17 15 11 9 8 8 7 6 4 4 2 3 2 3 2 4 7 7 9 10 12 13 15 15 15 14 13
13 9 11 14 18 18 10 14 12 4 10 15 16 18 18 12 12 14 13 12 11 10 9 7 6 5 3 3 4 2 1 3 5 6 9 10 11 12 14 14 14 13 13 12
12 16 10 10 7 2 20 13 15 7 13 15 16 17 18 16 15 15 14 13 11 10 9 8 7 6 4 2 0 3 3 4 7 8 9 10 12 13 13 13 13 11 12 12
13 7 8 6 13 10 14 14 13 12 10 13 16 18 18 17 16 15 15 13 11 10 9 8 6 4 2 1 2 3 5 7 7 6 9 11 12 12 9 9 11 13 14 14
7 16 13 12 5 8 12 18 14 14 12 16 17 18 17 17 16 15 15 13 12 11 10 8 5 3 2 2 3 5 7 8 7 6 7 7 6 6 8 9 10 11 12 19
12 10 11 9 16 15 13 20 17 18 18 19 21 19 16 16 17 16 15 14 14 12 10 7 4 2 1 2 4 5 6 5 4 3 3 3 3 6 7 10 11 12 17 20
Wind_Direction
199 239 217 212 223 312 243 246 209 79 128 220 224 171 176 183 192 184 178 167 151 128 110 95 89 84 79 82 78 72 66 62 66 81 131 210 326 312 301 296 296 297 293 290
203 228 192 274 199 221 223 207 130 121 151 260 183 188 202 195 198 193 186 178 162 145 129 112 100 93 92 89 81 73 66 60 62 57 45 26 18 11 6 341 325 320 317 313
254 87 162 193 191 203 211 234 157 13 152 204 187 187 192 197 203 205 206 186 173 164 153 137 123 109 94 89 83 78 74 69 65 60 40 22 17 23 23 13 9 344 341 335
220 126 178 192 186 228 176 149 165 156 225 241 204 278 188 176 203 207 203 198 186 174 161 153 142 129 113 95 93 86 75 66 58 61 57 66 53 38 22 20 356 3 353 353
120 173 186 196 143 240 91 158 211 239 261 289 198 249 117 174 204 208 207 200 192 182 172 163 156 143 127 107 96 85 72 59 52 49 55 57 59 40 34 26 24 16 4 2
94 126 248 67 108 222 144 173 202 241 260 248 249 259 266 194 224 219 194 203 194 182 175 167 161 152 141 123 109 91 76 63 55 48 44 43 46 56 46 37 33 24 19 15
174 164 132 172 151 154 210 222 249 229 210 246 104 243 269 88 11 248 228 202 191 180 177 173 169 163 155 143 129 111 87 71 62 50 37 32 41 49 39 45 28 37 26 23
208 182 182 162 260 273 215 282 272 285 272 268 155 252 122 78 232 226 237 190 184 180 178 176 176 173 167 159 146 137 116 92 60 37 32 45 58 55 51 47 56 42 36 29
217 230 128 50 201 272 174 235 353 287 251 265 265 224 207 187 194 194 189 181 185 185 184 184 186 181 173 174 177 170 169 185 212 9 17 24 38 62 51 42 47 23 27 19
199 238 203 146 182 110 276 113 210 209 272 277 278 249 268 186 205 191 190 194 190 190 192 196 196 195 193 194 197 204 212 216 229 231 249 248 314 352 354 360 358 354 357 358
218 242 152 186 210 230 177 218 240 299 299 293 294 300 70 224 183 190 202 202 199 199 202 205 206 207 206 207 209 211 214 220 234 240 241 247 248 277 304 315 316 319 327 328
200 237 244 220 105 273 271 259 231 251 249 240 295 280 105 147 212 209 210 208 214 217 218 220 219 215 211 215 215 219 216 222 231 233 238 247 253 271 282 291 297 303 306 306
180 209 222 204 194 198 226 212 235 254 275 264 278 266 141 164 184 192 226 222 221 225 227 226 223 220 219 220 220 222 227 233 239 242 245 258 255 271 284 289 292 297 302 297
186 230 231 253 290 77 198 220 219 222 254 274 261 263 221 189 216 224 248 244 251 238 230 231 231 230 229 226 225 227 232 239 249 251 257 266 269 270 282 295 300 299 300 297
221 234 234 250 253 232 251 232 225 234 248 259 270 271 264 270 263 270 283 252 204 170 168 187 211 217 216 220 223 229 237 244 254 270 286 284 286 286 284 282 281 280 281 291
194 235 237 240 231 252 251 245 249 240 244 254 258 268 275 276 272 250 238 168 135 116 110 104 103 105 107 124 193 231 244 251 248 279 270 292 305 312 301 291 294 292 291 285
196 215 221 251 257 265 257 247 245 243 244 253 256 273 1 252 222 199 164 141 127 116 107 103 100 95 90 78 73 75 181 254 287 60 67 29 357 346 327 323 320 318 306 294
203 209 239 255 216 250 257 1 264 257 252 238 244 264 259 209 169 159 159 143 130 118 110 104 101 90 75 69 64 66 77 85 91 71 19 336 321 322 323 326 327 322 317 315
225 218 234 241 229 254 219 200 212 215 239 219 239 222 189 154 157 157 150 143 133 122 108 101 97 93 86 75 73 72 67 56 49 5 332 337 342 333 326 319 319 318 314 315
196 237 236 213 241 251 71 67 183 225 256 220 212 183 169 167 197 162 163 149 137 128 122 115 107 98 85 56 60 62 28 24 10 2 341 325 324 322 320 317 318 314 312 310
202 215 225 232 236 263 198 150 161 218 148 151 180 176 175 190 99 134 150 151 147 139 129 123 120 119 78 30 348 11 86 346 330 327 340 331 322 323 321 319 320 316 314 305
212 208 223 232 241 241 161 167 206 166 139 160 176 178 179 164 138 140 147 150 146 142 132 134 129 116 120 111 108 119 314 317 323 329 324 321 319 322 319 320 322 320 315 322
237 231 240 212 239 117 184 206 202 173 165 172 177 175 174 166 160 154 152 151 153 152 152 140 137 128 121 116 201 281 277 314 316 313 319 320 322 320 321 323 325 333 329 331
219 202 222 187 217 204 196 201 203 193 188 180 175 174 175 172 163 157 153 153 154 154 145 146 153 169 183 256 332 321 302 296 294 298 318 318 325 332 340 347 340 344 348 341
205 174 214 225 202 193 208 206 203 192 182 168 167 169 171 167 162 159 157 159 161 156 152 156 164 176 234 301 305 309 301 298 296 303 316 335 347 4 2 357 348 356 345 338
187 197 203 226 223 212 220 200 190 180 170 167 162 161 163 163 159 157 157 160 157 156 156 155 152 161 205 307 306 309 305 301 286 300 335 333 356 345 353 357 355 350 353 358